Location: Caltech
(34.1382°N, 118.1253°W)
Time: 22:01:54
(UTC-07:00)

Courier 1B - Visible Passes

Search period start: 03 July 2015 00:00
Search period end: 13 July 2015 00:00
Orbit: 963 x 1209 km, 28.3° (Epoch: 03 July)

Date Brightness Start Highest point End Pass type
(mag) Time Alt. Az. Time Alt. Az. Time Alt. Az.
03 Jul 10.0 02:14:45 10° SE 02:14:45 10° SE 02:14:58 10° ESE visible
03 Jul 8.7 04:01:37 24° SSW 04:05:02 34° SSE 04:11:41 10° E visible
04 Jul 8.9 03:10:58 28° SSE 03:11:15 28° SSE 03:17:36 10° ESE visible
04 Jul 8.3 04:57:51 11° WSW 05:05:06 49° S 05:12:13 10° E visible
05 Jul 9.5 02:20:18 19° SE 02:20:18 19° SE 02:23:18 10° ESE visible
05 Jul 8.3 04:07:10 25° SW 04:11:16 44° SSE 04:18:24 10° E visible
06 Jul 8.4 03:16:30 38° S 03:17:27 39° SSE 03:24:29 10° E visible
06 Jul 8.1 05:03:50 10° WSW 05:11:26 56° S 05:18:43 10° E visible
07 Jul 9.0 02:25:49 29° SE 02:25:49 29° SE 02:30:27 10° E visible
07 Jul 8.1 04:12:41 23° WSW 04:17:34 53° S 04:24:57 10° E visible
08 Jul 9.8 01:35:08 14° ESE 01:35:08 14° ESE 01:36:14 10° ESE visible
08 Jul 8.2 03:22:01 43° SSW 03:23:42 49° SSE 03:31:06 10° E visible
08 Jul 8.1 05:10:09 10° W 05:17:47 56° S 05:25:07 10° ESE visible
09 Jul 8.5 02:31:22 40° SE 02:31:22 40° SE 02:37:10 10° E visible
09 Jul 8.1 04:18:14 19° WSW 04:23:54 57° S 04:31:23 10° ESE visible
10 Jul 9.5 01:40:44 20° ESE 01:40:44 20° ESE 01:43:07 10° E visible
10 Jul 8.0 03:27:37 42° SW 03:29:59 56° S 03:37:34 10° E visible
10 Jul 8.2 05:16:33 10° W 05:24:05 51° S 05:31:23 10° ESE visible
11 Jul 8.2 02:37:03 50° SSE 02:37:03 50° SSE 02:43:41 10° E visible
11 Jul 8.1 04:23:56 16° WSW 04:30:13 55° S 04:37:43 10° ESE visible
12 Jul 9.2 01:46:34 25° ESE 01:46:34 25° ESE 01:49:43 10° E visible
12 Jul 8.0 03:33:27 38° WSW 03:36:19 57° S 03:43:56 10° ESE visible
